Вернуться в каталог

STARLINK-31718

АктивенСвязьVLEO
NORAD 59556·PAYLOAD·🇺🇸 United States

Запущен Apr 18, 2024 с Cape Canaveral Space Force Station

Loading…

Ближайшие Пролёты (ближайшие 24 часа)

TLE

СвежийSource: CelesTrak SupGP

Эпоха: Sep 15, 2026, 03:18 UTC

1 59556C 24074Y   26258.13798611  .00045419  00000+0  16448-2 0  2581
2 59556  43.0036 353.8315 0001620 261.9926 164.2486 15.27560425    19

Отслеживайте STARLINK-31718 в реальном времени с AllMySat

Download on the App Store